Content
SEND FEEDBACK

Daily
Averages
Monthly
Summary
United States of America

ROCKWALL, TEXAS


Home > North America > United States > Texas
Elevation: 600 feet     Latitude: 32 55N     Longitude: 096 30W

WEATHER
 
SELECT A DAY
Number of Records: 257,998;   Date Range: 7/9/03 - 7/7/14
 
SHARE

PRINT THIS DATA

[ ← Previous Day ]
WEATHER ALMANAC - FEBRUARY 13, 2013
[ Next Day → ]
[ °C ]   °F
Weather ElementAverageHighLow
Temperature43 °F53.6 °F (3:35 pm)37.4 °F (4:35 am)
Dewpoint34.1 °F37.4 °F (12:35 am)32 °F (3:15 pm)
Humidity72.5 %87 % (12:35 am)44 % (3:35 pm)
Barometer30.09 in30.18 in (10:55 am)30.03 in (12:35 am)
Wind Speed7.4 mph20.7 mph (12:35 am)
Wind Gust25.3 mph (12:35 am)
Weather ElementAverage
Visibility10 mi
Wind DirectionSSW (217.9 °)

Weather ElementTotal
Precipitation0.06 in
Heating Degree Days19.5 (Base 65)
Averaged from 68 records on February 13, 2013
WEATHER CONDITIONS BREAKOUT
WIND DIRECTION BREAKOUT
WEATHER BY HOUR - FEBRUARY 13, 2013
[ °C ]   °F
Local TimeTemperatureDewpointHumidityBarometerVisibilityWind DirectionWind SpeedGust SpeedPrecipitationEventsConditions
12:35 AM41.0 °F37.4 °F87 %30.03 in10.0 miNW (310°)20.7 mph25.3 mphOvercast
12:55 AM41.0 °F35.6 °F81 %30.04 in10.0 miNW (310°)15.0 mphOvercast
1:15 AM41.0 °F35.6 °F81 %30.04 in10.0 miNW (310°)17.3 mph21.9 mphOvercast
1:35 AM41.0 °F35.6 °F81 %30.05 in10.0 miNW (310°)16.1 mph21.9 mphOvercast
1:55 AM41.0 °F35.6 °F81 %30.06 in10.0 miNW (320°)12.7 mphOvercast
2:15 AM39.2 °F35.6 °F87 %30.06 in10.0 miNW (320°)11.5 mphOvercast
2:35 AM41.0 °F35.6 °F81 %30.06 in10.0 miNW (320°)13.8 mph20.7 mphOvercast
2:55 AM41.0 °F35.6 °F81 %30.07 in10.0 miNW (310°)16.1 mph21.9 mphOvercast
3:15 AM41.0 °F33.8 °F76 %30.07 in10.0 miNW (310°)17.3 mphOvercast
3:35 AM39.2 °F33.8 °F81 %30.07 in10.0 miNNW (330°)17.3 mph25.3 mph0.01 inOvercast
3:55 AM39.2 °F33.8 °F81 %30.07 in10.0 miWNW (300°)15.0 mph0.01 inOvercast
4:15 AM39.2 °F33.8 °F81 %30.08 in10.0 miWNW (300°)17.3 mph21.9 mphOvercast
4:35 AM37.4 °F33.8 °F87 %30.08 in10.0 miNW (310°)16.1 mphOvercast
4:55 AM37.4 °F33.8 °F87 %30.08 in10.0 miNW (320°)16.1 mph19.6 mphOvercast
5:15 AM37.4 °F33.8 °F87 %30.09 in10.0 miNW (310°)10.4 mph17.3 mphOvercast
5:35 AM37.4 °F33.8 °F87 %30.09 in10.0 miNW (310°)11.5 mphOvercast
5:55 AM37.4 °F33.8 °F87 %30.10 in10.0 miNW (310°)10.4 mphOvercast
6:15 AM37.4 °F33.8 °F87 %30.10 in10.0 miNW (310°)10.4 mphOvercast
6:35 AM37.4 °F33.8 °F87 %30.11 in10.0 miNW (320°)10.4 mphOvercast
6:55 AM37.4 °F33.8 °F87 %30.11 in10.0 miNNW (330°)8.1 mphOvercast
7:35 AM39.2 °F33.8 °F81 %30.12 in10.0 miNW (320°)6.9 mphOvercast
7:55 AM39.2 °F33.8 °F81 %30.12 in10.0 miNW (310°)8.1 mphOvercast
8:15 AM39.2 °F33.8 °F81 %30.13 in10.0 miNW (310°)8.1 mphOvercast
8:35 AM39.2 °F33.8 °F81 %30.14 in10.0 miWNW (300°)10.4 mphOvercast
8:55 AM41.0 °F33.8 °F76 %30.15 in10.0 miNW (310°)10.4 mphOvercast
9:15 AM41.0 °F33.8 °F76 %30.16 in10.0 miNW (310°)9.2 mphOvercast
9:35 AM41.0 °F33.8 °F76 %30.16 in10.0 miNW (310°)9.2 mph0.01 inOvercast
10:15 AM41.0 °F33.8 °F76 %30.17 in10.0 miNW (320°)6.9 mphOvercast
10:35 AM41.0 °F33.8 °F76 %30.17 in10.0 miNorth (350°)5.8 mphOvercast
10:55 AM41.0 °F33.8 °F76 %30.18 in10.0 miNNW (330°)3.5 mphOvercast
11:15 AM42.8 °F35.6 °F76 %30.18 in10.0 miNW (320°)5.8 mphOvercast
11:35 AM44.6 °F33.8 °F66 %30.17 in10.0 miNW (310°)3.5 mphMostly Cloudy
11:55 AM44.6 °F33.8 °F66 %30.17 in10.0 miWest (260°)3.5 mphMostly Cloudy
12:15 PM44.6 °F33.8 °F66 %30.16 in10.0 miCalmMostly Cloudy
12:35 PM44.6 °F33.8 °F66 %30.14 in10.0 miCalmScattered Clouds
12:55 PM46.4 °F35.6 °F66 %30.13 in10.0 miWSW (240°)3.5 mphClear
1:15 PM48.2 °F35.6 °F62 %30.12 in10.0 miCalmScattered Clouds
1:35 PM48.2 °F35.6 °F62 %30.11 in10.0 miWNW (290°)3.5 mphClear
1:55 PM50.0 °F35.6 °F58 %30.09 in10.0 miCalmClear
2:15 PM50.0 °F33.8 °F54 %30.08 in10.0 miCalmClear
2:35 PM51.8 °F33.8 °F50 %30.08 in10.0 miCalmClear
2:55 PM51.8 °F33.8 °F50 %30.07 in10.0 miSW (220°)4.6 mphClear
3:15 PM51.8 °F32.0 °F47 %30.06 in10.0 miCalmClear
3:35 PM53.6 °F32.0 °F44 %30.06 in10.0 miNW (310°)3.5 mphClear
3:55 PM51.8 °F32.0 °F47 %30.06 in10.0 miCalmClear
4:15 PM53.6 °F32.0 °F44 %30.05 in10.0 miCalmClear
4:35 PM53.6 °F32.0 °F44 %30.05 in10.0 miCalmClear
4:55 PM53.6 °F32.0 °F44 %30.05 in10.0 miCalmClear
5:15 PM53.6 °F32.0 °F44 %30.05 in10.0 miSouth (170°)3.5 mphClear
5:35 PM51.8 °F33.8 °F50 %30.05 in10.0 miSSE (160°)4.6 mphClear
5:55 PM51.8 °F33.8 °F50 %30.05 in10.0 miSouth (170°)4.6 mphClear
6:15 PM48.2 °F33.8 °F58 %30.05 in10.0 miSSE (160°)4.6 mphClear
6:35 PM48.2 °F35.6 °F62 %30.04 in10.0 miSSE (150°)5.8 mphClear
7:15 PM44.6 °F33.8 °F66 %30.04 in10.0 miSSE (160°)5.8 mphClear
7:35 PM44.6 °F35.6 °F71 %30.04 in10.0 miSSE (160°)5.8 mphClear
7:55 PM42.8 °F33.8 °F70 %30.05 in10.0 miSouth (170°)5.8 mphClear
8:15 PM41.0 °F35.6 °F81 %30.05 in10.0 miSSE (160°)4.6 mphClear
8:35 PM41.0 °F33.8 °F76 %30.05 in10.0 miSouth (170°)6.9 mphClear
8:55 PM41.0 °F33.8 °F76 %30.05 in10.0 miSouth (170°)6.9 mphClear
9:15 PM41.0 °F33.8 °F76 %30.06 in10.0 miSouth (170°)6.9 mphClear
9:35 PM39.2 °F33.8 °F81 %30.06 in10.0 miSouth (170°)6.9 mphClear
9:55 PM37.4 °F33.8 °F87 %30.07 in10.0 miSouth (180°)6.9 mphClear
10:15 PM39.2 °F33.8 °F81 %30.07 in10.0 miSouth (190°)5.8 mph0.01 inClear
10:35 PM37.4 °F33.8 °F87 %30.07 in10.0 miSouth (180°)5.8 mph0.01 inClear
10:55 PM37.4 °F33.8 °F87 %30.07 in10.0 miSouth (180°)6.9 mph0.01 inClear
11:15 PM37.4 °F33.8 °F87 %30.07 in10.0 miSouth (180°)5.8 mphClear
11:35 PM37.4 °F33.8 °F87 %30.07 in10.0 miSouth (190°)5.8 mphClear
11:55 PM37.4 °F33.8 °F87 %30.07 in10.0 miSouth (190°)4.6 mphClear
Hourly data recorded from KHQZ, located miles away from Rockwall, Texas







STORIES FROM OUR PARTNERS